SBIRS GEO-6 (USA 336)

Last updated on Tue Oct 08 2024 00:02:42 GMT+0000 (Coordinated Universal Time)

1 53355U 22092A 24281.35617019 -.00000283 00000+0 00000+0 0 9997 2 53355 4.4244 311.4827 0001623 244.2500 87.9696 1.00276386 8035
UTC large
Height (km)
Speed (km/s)
/
Latitude / Longitude
Inclination (degrees)
Orbital Period (minutes)
Azimuth
Elevation
Range (km)
Doppler Factor

Next 0 passes for location: London (51.5072 / 0.1276)

Sorry there are no passes over London.